Weather History for KOLF - November, 2011

Change the Weather History Date:

Sunday, November 6, 2011

  Actual Average Record
Temperature  
Mean Temperature 27 °F -  
Max Temperature 31 °F 46 °F 73 °F (2010)
Min Temperature 22 °F 20 °F 0 °F (2003)
Degree Days  
Heating Degree Days 38    
Cooling Degree Days 0    
Moisture  
Dew Point 25 °F    
Average Humidity 88    
Maximum Humidity 93    
Minimum Humidity 80    
Precipitation  
Precipitation T in 0.02 in 0.03 in (2000)
Month to date precipitation 0.03 0.12  
Year to date precipitation 18.30 11.61  
Sea Level Pressure  
Sea Level Pressure 29.70 in    
Wind  
Wind Speed 15 mph (West)    
Max Wind Speed 22 mph    
Max Gust Speed 30 mph    
Visibility 4 miles    
Events Snow    
T = Trace of Precipitation, MM = Missing Value Source: NWS Daily Summary

Daily Weather History Graph

Daily Weather History Graph

Search for Another Location

Airport or City:

Trip Planner

Search our weather history database for the weather conditions in past years. The results will help you decide how hot, cold, wet, or windy it might be!

Date:

Astronomy

Nov. 06, 2011 Rise Set
Actual Time 6:54 AM MST 4:36 PM MST
Civil Twilight 6:21 AM MST 5:09 PM MST
Nautical Twilight 5:44 AM MST 5:46 PM MST
Astronomical Twilight 5:08 AM MST 6:22 PM MST
Moon 2:34 PM MST (11/6) 2:49 AM MST (11/6)
Length of Visible Light 10h 47m
Length of Day
9h 41m
Waxing Gibbous, 86% of the Moon is Illuminated
Nov 6
Waxing Gibbous
Nov 10
Full
Nov 18
Last Quarter
Nov 24
New
Dec 2
First Quarter

Hourly Weather History & Observations

Time (MST) Temp. Windchill Dew Point Humidity Pressure Visibility Wind Dir Wind Speed Gust Speed Precip Events Conditions
12:00 AM 28.4 °F 18.5 °F 26.6 °F 93% 29.55 in 2.0 mi West 11.5 mph - 0.00 in Snow Light Snow
12:24 AM 28.4 °F 18.5 °F 26.6 °F 93% 29.55 in 2.5 mi West 11.5 mph - 0.00 in Snow Light Snow
12:33 AM 28.4 °F 18.0 °F 26.6 °F 93% 29.55 in 4.0 mi West 12.7 mph - 0.00 in Snow Light Snow
12:46 AM 28.4 °F 18.0 °F 26.6 °F 93% 29.56 in 2.0 mi West 12.7 mph - 0.01 in Snow Light Snow
12:53 AM 28.9 °F 18.2 °F 26.1 °F 89% 29.62 in 1.8 mi West 13.8 mph - 0.01 in Snow Light Snow
1:16 AM 28.4 °F 18.0 °F 26.6 °F 93% 29.56 in 1.5 mi West 12.7 mph - 0.00 in Snow Light Snow
1:51 AM 28.4 °F 18.5 °F 26.6 °F 93% 29.57 in 2.0 mi West 11.5 mph - 0.00 in Snow Light Snow
1:53 AM 28.0 °F 18.6 °F 26.1 °F 92% 29.63 in 2.0 mi West 10.4 mph - 0.00 in Snow Light Snow
1:15 AM 28.4 °F 17.5 °F 24.8 °F 86% 29.57 in 1.8 mi West 13.8 mph 20.7 mph 0.00 in Snow Light Snow
1:26 AM 28.4 °F 17.0 °F 24.8 °F 86% 29.57 in 2.5 mi West 15.0 mph - 0.00 in Snow Light Snow
1:53 AM 28.0 °F 16.5 °F 25.0 °F 88% 29.63 in 2.0 mi West 15.0 mph - 0.00 in Snow Light Snow
2:02 AM 28.4 °F 17.0 °F 24.8 °F 86% 29.57 in 1.8 mi West 15.0 mph - 0.00 in Snow Light Snow
2:39 AM 28.4 °F 16.2 °F 24.8 °F 86% 29.57 in 2.0 mi WNW 17.3 mph 24.2 mph 0.00 in Snow Light Snow
2:53 AM 28.0 °F 16.5 °F 25.0 °F 88% 29.63 in 1.8 mi WNW 15.0 mph - 0.00 in Snow Light Snow
3:53 AM 28.0 °F 17.0 °F 25.0 °F 88% 29.63 in 1.8 mi West 13.8 mph 24.2 mph 0.00 in Snow Light Snow
4:16 AM 28.4 °F 17.0 °F 24.8 °F 86% 29.57 in 2.0 mi West 15.0 mph - 0.00 in Snow Light Snow
4:32 AM 28.4 °F 17.5 °F 24.8 °F 86% 29.56 in 2.5 mi West 13.8 mph - 0.00 in Snow Light Snow
4:42 AM 28.4 °F 17.0 °F 24.8 °F 86% 29.56 in 3.0 mi West 15.0 mph - 0.00 in Snow Light Snow
4:53 AM 28.0 °F 17.0 °F 24.1 °F 85% 29.63 in 4.0 mi West 13.8 mph - 0.00 in Snow Light Snow
5:53 AM 28.0 °F 16.5 °F 24.1 °F 85% 29.64 in 10.0 mi West 15.0 mph 20.7 mph 0.00 in   Overcast
6:53 AM 27.0 °F 15.2 °F 24.1 °F 89% 29.65 in 5.0 mi West 15.0 mph - 0.00 in Snow Light Snow
7:38 AM 28.4 °F 16.6 °F 24.8 °F 86% 29.59 in 2.5 mi West 16.1 mph 25.3 mph 0.00 in Snow Light Snow
7:53 AM 28.0 °F 16.1 °F 24.1 °F 85% 29.67 in 2.0 mi West 16.1 mph 24.2 mph 0.00 in Snow Light Snow
8:50 AM 28.4 °F 14.7 °F 24.8 °F 86% 29.60 in 3.0 mi West 21.9 mph 28.8 mph 0.00 in Snow Light Snow
8:53 AM 28.9 °F 16.1 °F 25.0 °F 85% 29.68 in 3.0 mi West 19.6 mph 28.8 mph 0.00 in Snow Light Snow
9:53 AM 30.0 °F 17.9 °F 25.0 °F 82% 29.70 in 8.0 mi West 18.4 mph 27.6 mph 0.00 in   Overcast
10:53 AM 30.0 °F 16.9 °F 25.0 °F 82% 29.71 in 10.0 mi West 21.9 mph 27.6 mph N/A   Overcast
11:53 AM 30.0 °F 16.9 °F 25.0 °F 82% 29.72 in 8.0 mi West 21.9 mph 29.9 mph N/A   Overcast
12:34 PM 30.2 °F 17.1 °F 24.8 °F 80% 29.66 in 8.0 mi West 21.9 mph 29.9 mph N/A   Overcast
12:53 PM 30.0 °F 17.2 °F 25.0 °F 82% 29.74 in 9.0 mi West 20.7 mph 27.6 mph N/A   Overcast
1:16 PM 30.2 °F 17.8 °F 24.8 °F 80% 29.67 in 7.0 mi West 19.6 mph 26.5 mph N/A   Overcast
1:53 PM 30.0 °F 16.9 °F 25.0 °F 82% 29.76 in 2.0 mi West 21.9 mph 29.9 mph 0.00 in Snow Light Snow
2:02 PM 30.2 °F 18.5 °F 24.8 °F 80% 29.70 in 2.5 mi West 17.3 mph 26.5 mph 0.00 in Snow Light Snow
2:14 PM 28.4 °F 15.4 °F 26.6 °F 93% 29.70 in 1.2 mi West 19.6 mph 27.6 mph 0.00 in Snow Light Snow
2:18 PM 28.4 °F 15.1 °F 26.6 °F 93% 29.70 in 0.8 mi West 20.7 mph - 0.00 in Snow Light Snow
2:38 PM 28.4 °F 16.6 °F 26.6 °F 93% 29.71 in 1.0 mi West 16.1 mph 29.9 mph 0.00 in Snow Light Snow
2:48 PM 28.4 °F 16.2 °F 26.6 °F 93% 29.72 in 0.8 mi West 17.3 mph 25.3 mph 0.00 in Snow Light Snow
2:53 PM 28.9 °F 16.1 °F 26.1 °F 89% 29.80 in 0.8 mi West 19.6 mph - 0.00 in Snow Light Snow
3:11 PM 28.4 °F 15.8 °F 26.6 °F 93% 29.73 in 1.0 mi West 18.4 mph 24.2 mph 0.00 in Snow Light Snow
3:22 PM 28.4 °F 14.7 °F 26.6 °F 93% 29.74 in 1.2 mi West 21.9 mph 27.6 mph 0.00 in Snow Light Snow
3:37 PM 28.4 °F 17.0 °F 26.6 °F 93% 29.74 in 2.0 mi West 15.0 mph 24.2 mph N/A Snow Light Snow
3:45 PM 28.4 °F 16.2 °F 26.6 °F 93% 29.75 in 2.0 mi West 17.3 mph - 0.00 in Snow Light Snow
3:53 PM 28.9 °F 17.3 °F 26.1 °F 89% 29.83 in 2.0 mi West 16.1 mph 24.2 mph 0.00 in Snow Light Snow
4:25 PM 28.4 °F 16.6 °F 26.6 °F 93% 29.77 in 1.8 mi West 16.1 mph - 0.00 in Snow Light Snow
4:38 PM 30.2 °F 19.3 °F 26.6 °F 86% 29.78 in 2.0 mi West 15.0 mph - 0.00 in Snow Light Snow
4:53 PM 30.0 °F 18.7 °F 26.1 °F 85% 29.86 in 4.0 mi West 16.1 mph 21.9 mph 0.00 in Snow Light Snow
5:53 PM 28.9 °F 19.2 °F 26.1 °F 89% 29.89 in 10.0 mi West 11.5 mph - 0.00 in   Overcast
6:53 PM 28.0 °F 19.3 °F 25.0 °F 88% 29.93 in 10.0 mi West 9.2 mph - N/A   Partly Cloudy
7:53 PM 28.0 °F 20.0 °F 25.0 °F 88% 29.96 in 10.0 mi West 8.1 mph - N/A   Overcast
8:53 PM 26.1 °F 17.6 °F 24.1 °F 92% 29.98 in 10.0 mi WSW 8.1 mph - N/A   Scattered Clouds
9:53 PM 26.1 °F 15.6 °F 24.1 °F 92% 30.01 in 10.0 mi West 11.5 mph - N/A   Overcast
10:53 PM 25.0 °F 14.2 °F 23.0 °F 92% 30.03 in 10.0 mi West 11.5 mph - N/A   Overcast